Flag for U.S.A. Weather past 2 weeks in Glendale, California, U.S.A.

Now
85 °F

Sunny.


Feels Like: 83 °F
Forecast: 67 / 83 °F
Wind: 8 mph from West

Location: Burbank-Glendale-Pasadena Airport

Current Time: Sep 17, 2014 at 8:49:26 PM

Latest Report: Sep 17, 2014 at 7:53 PM


Visibility: 10 mi

Pressure: 29.69 "Hg

Humidity: 32%

Dew point: 52 °F

Location of GlendaleLocation

Historic Weather in Glendale — Graph

°F

Glendale temperature yesterday

Maximum temperature yesterday: 103 °F (at 12:53 PM)
Minimum temperature yesterday: 79 °F (at 4:53 AM)
Average temperature yesterday: 90 °F

Past Weeks' High & Low Weather Summary

 TemperatureHumidityPressure
High103 °F (Sep 14, 12:53 PM)90% (Sep 5, 3:53 AM)29.90 "Hg (Sep 5, 3:53 AM)
Low62 °F (Sep 5, 5:53 AM)12% (Sep 14, 2:53 PM)29.64 "Hg (Sep 16, 4:53 PM)
Average81 °F44%29.77 "Hg
* Reported Sep 2 6:53 PM — Sep 17 6:53 PM, Glendale, Weather by CustomWeather, © 2014

Note: Actual official high and low records may vary slightly from our data, if they occured in-between our weather recording intervals... More about our weather records

Advertising

Glendale weather history for previous 24 hours

 ConditionsComfort  
Time TempWeatherWind HumidityBarometerVisibility
6:53 PM
Sep 17
89 °FSunny.8 mph23%29.68 "Hg10 mi
5:53 PM94 °FSunny.13 mph18%29.67 "Hg10 mi
4:53 PM93 °FSunny.7 mph25%29.66 "Hg10 mi
3:53 PM94 °FSunny.8 mph24%29.67 "Hg10 mi
2:53 PM94 °FSunny.13 mph27%29.68 "Hg10 mi
1:53 PM95 °FSunny.9 mph28%29.69 "Hg10 mi
12:53 PM95 °FSunny.10 mph29%29.71 "Hg10 mi
11:53 AM95 °FSunny.13 mph29%29.72 "Hg10 mi
10:53 AM94 °FSunny.8 mph30%29.72 "Hg10 mi
9:53 AM91 °FSunny.8 mph36%29.72 "Hg10 mi
8:53 AM87 °FSunny.No wind39%29.72 "Hg10 mi
7:53 AM83 °FSunny.No wind44%29.72 "Hg10 mi
6:53 AM80 °FClear.No wind49%29.71 "Hg10 mi
5:53 AM81 °FClear.No wind45%29.70 "Hg10 mi
4:53 AM80 °FClear.No wind47%29.69 "Hg10 mi
3:53 AM82 °FClear.No wind43%29.69 "Hg10 mi
2:53 AM82 °FClear.No wind43%29.69 "Hg10 mi
1:53 AM83 °FClear.No wind40%29.70 "Hg10 mi
12:53 AM85 °FClear.No wind36%29.70 "Hg10 mi
11:53 PM
Sep 16
85 °FClear.No wind39%29.70 "Hg10 mi
10:53 PM86 °FClear.No wind37%29.71 "Hg10 mi
9:53 PM89 °FClear.5 mph31%29.70 "Hg10 mi
8:53 PM91 °FClear.No wind28%29.69 "Hg10 mi
Weather by CustomWeather, © 2014

See weather overviewHow to use our weather pages